sat.trackr.live / text

‹ back to catalog

STARLINK-2391

NORAD 47810 · 2021-018Z

PAYLOAD ACTIVE UNKNOWN

§ Identity

Operator
Country
US
Launch date
2021-03-11
Launch site
AFETR
Launch vehicle
Mass (kg)
RCS (m²)

Purposes: comms

External: N2YO · Heavens-Above · Gunter

§ Orbital elements

Epoch: 2026-05-25T00:55:58.239264Z

Period
94.01 min
Inclination
53.1609°
Eccentricity
0.0000305
Mean motion
15.31698717 rev/d
Perigee alt
470.5 km
Apogee alt
471.0 km
Semi-major
6,848.9 km
B*
-5.6155e-5
RAAN
260.6067°
Arg perigee
127.0786°
Mean anomaly
233.0243°
Rev number
28,829

§ Raw data

STARLINK-23911 47810U 21018Z   26145.03886851 -.00002106  00000+0 -56155-4 0  99952 47810  53.1609 260.6067 0000305 127.0786 233.0243 15.31698717288296

JSON: /api/v1/satellites/47810 · /tle

For live sub-satellite position, see the globe view (requires WebGL).

§ Visibility from observer

Set your observer location to see the next 7 days of passes ≥ 10°. The values pass through the URL so the page stays shareable.

No JS? Fill the form by hand. The geolocation button needs JavaScript.